Year,Month,Day,Hour,Minute,Value (Times are PST for temperature in C)
2010,05,04,00,00,4.70
2010,05,04,00,01,4.70
2010,05,04,00,02,4.70
2010,05,04,00,03,4.60
2010,05,04,00,04,4.60
2010,05,04,00,05,4.60
2010,05,04,00,06,4.60
2010,05,04,00,07,4.60
2010,05,04,00,08,4.60
2010,05,04,00,09,4.60
2010,05,04,00,10,4.60
2010,05,04,00,11,4.60
2010,05,04,00,12,4.60
2010,05,04,00,13,4.60
2010,05,04,00,14,4.60
2010,05,04,00,15,4.60
2010,05,04,00,16,4.70
2010,05,04,00,17,4.70
2010,05,04,00,18,4.70
2010,05,04,00,19,4.80
2010,05,04,00,20,4.80
2010,05,04,00,21,4.80
2010,05,04,00,22,4.80
2010,05,04,00,23,4.90
2010,05,04,00,24,4.90
2010,05,04,00,25,4.90
2010,05,04,00,26,4.90
2010,05,04,00,27,4.90
2010,05,04,00,28,5.00
2010,05,04,00,29,5.00
2010,05,04,00,30,5.00
2010,05,04,00,31,5.00
2010,05,04,00,32,5.00
2010,05,04,00,33,5.00
2010,05,04,00,34,5.00
2010,05,04,00,35,5.00
2010,05,04,00,36,5.00
2010,05,04,00,37,5.00
2010,05,04,00,38,5.00
2010,05,04,00,39,5.00
2010,05,04,00,40,5.00
2010,05,04,00,41,5.00
2010,05,04,00,42,5.00
2010,05,04,00,43,5.00
2010,05,04,00,44,4.90
2010,05,04,00,45,4.90
2010,05,04,00,46,4.90
2010,05,04,00,47,4.90
2010,05,04,00,48,4.90
2010,05,04,00,49,4.90
2010,05,04,00,50,4.90
2010,05,04,00,51,4.80
2010,05,04,00,52,4.80
2010,05,04,00,53,4.80
2010,05,04,00,54,4.80
2010,05,04,00,55,4.70
2010,05,04,00,56,4.70
2010,05,04,00,57,4.70
2010,05,04,00,58,4.60
2010,05,04,00,59,4.60
2010,05,04,01,00,4.60
2010,05,04,01,01,4.50
2010,05,04,01,02,4.50
2010,05,04,01,03,4.50
2010,05,04,01,04,4.40
2010,05,04,01,05,4.40
2010,05,04,01,06,4.40
2010,05,04,01,07,4.40
2010,05,04,01,08,4.30
2010,05,04,01,09,4.30
2010,05,04,01,10,4.30
2010,05,04,01,11,4.30
2010,05,04,01,12,4.30
2010,05,04,01,13,4.20
2010,05,04,01,14,4.20
2010,05,04,01,15,4.20
2010,05,04,01,16,4.20
2010,05,04,01,17,4.20
2010,05,04,01,18,4.20
2010,05,04,01,19,4.20
2010,05,04,01,20,4.20
2010,05,04,01,21,4.20
2010,05,04,01,22,4.20
2010,05,04,01,23,4.20
2010,05,04,01,24,4.20
2010,05,04,01,25,4.20
2010,05,04,01,26,4.20
2010,05,04,01,27,4.20
2010,05,04,01,28,4.20
2010,05,04,01,29,4.20
2010,05,04,01,30,4.20
2010,05,04,01,31,4.20
2010,05,04,01,32,4.20
2010,05,04,01,33,4.20
2010,05,04,01,34,4.20
2010,05,04,01,35,4.10
2010,05,04,01,36,4.10
2010,05,04,01,37,4.10
2010,05,04,01,38,4.00
2010,05,04,01,39,4.00
2010,05,04,01,40,3.90
2010,05,04,01,41,3.90
2010,05,04,01,42,3.90
2010,05,04,01,43,3.80
2010,05,04,01,44,3.80
2010,05,04,01,45,3.80
2010,05,04,01,46,3.80
2010,05,04,01,47,3.70
2010,05,04,01,48,3.70
2010,05,04,01,49,3.70
2010,05,04,01,50,3.70
2010,05,04,01,51,3.60
2010,05,04,01,52,3.60
2010,05,04,01,53,3.60
2010,05,04,01,54,3.60
2010,05,04,01,55,3.60
2010,05,04,01,56,3.50
2010,05,04,01,57,3.50
2010,05,04,01,58,3.50
2010,05,04,01,59,3.50
2010,05,04,02,00,3.50
2010,05,04,02,01,3.50
2010,05,04,02,02,3.50
2010,05,04,02,03,3.40
2010,05,04,02,04,3.40
2010,05,04,02,05,3.40
2010,05,04,02,06,3.40
2010,05,04,02,07,3.40
2010,05,04,02,08,3.40
2010,05,04,02,09,3.40
2010,05,04,02,10,3.40
2010,05,04,02,11,3.40
2010,05,04,02,12,3.30
2010,05,04,02,13,3.30
2010,05,04,02,14,3.30
2010,05,04,02,15,3.30
2010,05,04,02,16,3.30
2010,05,04,02,17,3.30
2010,05,04,02,18,3.30
2010,05,04,02,19,3.30
2010,05,04,02,20,3.30
2010,05,04,02,21,3.30
2010,05,04,02,22,3.30
2010,05,04,02,23,3.30
2010,05,04,02,24,3.30
2010,05,04,02,25,3.30
2010,05,04,02,26,3.30
2010,05,04,02,27,3.30
2010,05,04,02,28,3.30
2010,05,04,02,29,3.20
2010,05,04,02,30,3.30
2010,05,04,02,31,3.20
2010,05,04,02,32,3.20
2010,05,04,02,33,3.20
2010,05,04,02,34,3.20
2010,05,04,02,35,3.20
2010,05,04,02,36,3.20
2010,05,04,02,37,3.20
2010,05,04,02,38,3.20
2010,05,04,02,39,3.20
2010,05,04,02,40,3.20
2010,05,04,02,41,3.10
2010,05,04,02,42,3.20
2010,05,04,02,43,3.10
2010,05,04,02,44,3.10
2010,05,04,02,45,3.10
2010,05,04,02,46,3.10
2010,05,04,02,47,3.10
2010,05,04,02,48,3.10
2010,05,04,02,49,3.10
2010,05,04,02,50,3.10
2010,05,04,02,51,3.00
2010,05,04,02,52,3.00
2010,05,04,02,53,3.00
2010,05,04,02,54,3.00
2010,05,04,02,55,2.90
2010,05,04,02,56,2.90
2010,05,04,02,57,2.90
2010,05,04,02,58,2.90
2010,05,04,02,59,2.90
2010,05,04,03,00,2.90
2010,05,04,03,01,2.80
2010,05,04,03,02,2.80
2010,05,04,03,03,2.80
2010,05,04,03,06,2.80
2010,05,04,03,07,2.80
2010,05,04,03,08,2.80
2010,05,04,03,09,2.90
2010,05,04,03,10,2.90
2010,05,04,03,11,2.90
2010,05,04,03,12,2.90
2010,05,04,03,13,2.90
2010,05,04,03,14,2.90
2010,05,04,03,15,2.90
2010,05,04,03,16,2.90
2010,05,04,03,17,2.90
2010,05,04,03,18,2.90
2010,05,04,03,19,2.90
2010,05,04,03,20,2.90
2010,05,04,03,21,2.90
2010,05,04,03,22,2.90
2010,05,04,03,23,2.90
2010,05,04,03,24,2.90
2010,05,04,03,25,2.80
2010,05,04,03,26,2.80
2010,05,04,03,27,2.80
2010,05,04,03,28,2.80
2010,05,04,03,29,2.80
2010,05,04,03,30,2.80
2010,05,04,03,31,2.80
2010,05,04,03,32,2.80
2010,05,04,03,33,2.80
2010,05,04,03,34,2.80
2010,05,04,03,35,2.80
2010,05,04,03,36,2.80
2010,05,04,03,37,2.80
2010,05,04,03,38,2.80
2010,05,04,03,39,2.80
2010,05,04,03,40,2.80
2010,05,04,03,41,2.80
2010,05,04,03,42,2.80
2010,05,04,03,43,2.80
2010,05,04,03,44,2.80
2010,05,04,03,45,2.80
2010,05,04,03,46,2.80
2010,05,04,03,47,2.80
2010,05,04,03,48,2.80
2010,05,04,03,49,2.80
2010,05,04,03,50,2.80
2010,05,04,03,51,2.80
2010,05,04,03,52,2.70
2010,05,04,03,53,2.80
2010,05,04,03,54,2.70
2010,05,04,03,55,2.70
2010,05,04,03,56,2.70
2010,05,04,03,57,2.70
2010,05,04,03,58,2.70
2010,05,04,03,59,2.70
2010,05,04,04,00,2.70
2010,05,04,04,01,2.70
2010,05,04,04,02,2.70
2010,05,04,04,03,2.70
2010,05,04,04,04,2.70
2010,05,04,04,05,2.70
2010,05,04,04,06,2.70
2010,05,04,04,07,2.70
2010,05,04,04,08,2.70
2010,05,04,04,09,2.70
2010,05,04,04,10,2.70
2010,05,04,04,11,2.70
2010,05,04,04,12,2.70
2010,05,04,04,13,2.70
2010,05,04,04,14,2.70
2010,05,04,04,15,2.70
2010,05,04,04,16,2.70
2010,05,04,04,17,2.70
2010,05,04,04,18,2.70
2010,05,04,04,19,2.70
2010,05,04,04,20,2.70
2010,05,04,04,21,2.70
2010,05,04,04,22,2.70
2010,05,04,04,23,2.70
2010,05,04,04,24,2.70
2010,05,04,04,25,2.70
2010,05,04,04,26,2.70
2010,05,04,04,27,2.80
2010,05,04,04,28,2.80
2010,05,04,04,29,2.80
2010,05,04,04,30,2.80
2010,05,04,04,31,2.80
2010,05,04,04,32,2.80
2010,05,04,04,33,2.80
2010,05,04,04,34,2.80
2010,05,04,04,35,2.90
2010,05,04,04,36,2.90
2010,05,04,04,37,2.80
2010,05,04,04,38,2.80
2010,05,04,04,39,2.80
2010,05,04,04,40,2.80
2010,05,04,04,41,2.80
2010,05,04,04,42,2.80
2010,05,04,04,43,2.90
2010,05,04,04,44,2.90
2010,05,04,04,45,2.90
2010,05,04,04,46,2.90
2010,05,04,04,47,2.90
2010,05,04,04,48,2.90
2010,05,04,04,49,2.90
2010,05,04,04,50,2.90
2010,05,04,04,51,2.90
2010,05,04,04,52,2.90
2010,05,04,04,53,2.90
2010,05,04,04,54,2.90
2010,05,04,04,55,2.90
2010,05,04,04,56,2.90
2010,05,04,04,57,2.90
2010,05,04,04,58,3.00
2010,05,04,04,59,3.00
2010,05,04,05,00,3.00
2010,05,04,05,01,3.00
2010,05,04,05,02,3.00
2010,05,04,05,03,3.00
2010,05,04,05,04,3.00
2010,05,04,05,05,3.00
2010,05,04,05,06,3.00
2010,05,04,05,07,3.00
2010,05,04,05,08,3.00
2010,05,04,05,09,3.00
2010,05,04,05,10,3.00
2010,05,04,05,11,3.00
2010,05,04,05,12,3.00
2010,05,04,05,13,3.00
2010,05,04,05,14,3.00
2010,05,04,05,15,3.00
2010,05,04,05,16,3.00
2010,05,04,05,17,3.00
2010,05,04,05,18,3.00
2010,05,04,05,19,3.10
2010,05,04,05,20,3.10
2010,05,04,05,21,3.10
2010,05,04,05,22,3.10
2010,05,04,05,23,3.10
2010,05,04,05,24,3.10
2010,05,04,05,25,3.10
2010,05,04,05,26,3.10
2010,05,04,05,27,3.10
2010,05,04,05,28,3.10
2010,05,04,05,29,3.10
2010,05,04,05,30,3.10
2010,05,04,05,31,3.10
2010,05,04,05,32,3.20
2010,05,04,05,33,3.20
2010,05,04,05,34,3.20
2010,05,04,05,35,3.20
2010,05,04,05,36,3.20
2010,05,04,05,37,3.20
2010,05,04,05,38,3.30
2010,05,04,05,39,3.30
2010,05,04,05,40,3.30
2010,05,04,05,41,3.30
2010,05,04,05,42,3.40
2010,05,04,05,43,3.40
2010,05,04,05,44,3.40
2010,05,04,05,45,3.40
2010,05,04,05,46,3.40
2010,05,04,05,47,3.40
2010,05,04,05,48,3.40
2010,05,04,05,49,3.40
2010,05,04,05,50,3.40
2010,05,04,05,51,3.40
2010,05,04,05,52,3.40
2010,05,04,05,53,3.40
2010,05,04,05,54,3.40
2010,05,04,05,55,3.40
2010,05,04,05,56,3.40
2010,05,04,05,57,3.40
2010,05,04,05,58,3.40
2010,05,04,05,59,3.40
2010,05,04,06,00,3.40
2010,05,04,06,01,3.40
2010,05,04,06,02,3.40
2010,05,04,06,03,3.40
2010,05,04,06,04,3.50
2010,05,04,06,05,3.50
2010,05,04,06,06,3.50
2010,05,04,06,07,3.50
2010,05,04,06,08,3.50
2010,05,04,06,09,3.50
2010,05,04,06,10,3.50
2010,05,04,06,11,3.60
2010,05,04,06,12,3.60
2010,05,04,06,13,3.60
2010,05,04,06,14,3.60
2010,05,04,06,15,3.60
2010,05,04,06,16,3.60
2010,05,04,06,17,3.70
2010,05,04,06,18,3.70
2010,05,04,06,19,3.70
2010,05,04,06,20,3.70
2010,05,04,06,21,3.70
2010,05,04,06,22,3.70
2010,05,04,06,23,3.70
2010,05,04,06,24,3.70
2010,05,04,06,25,3.70
2010,05,04,06,26,3.70
2010,05,04,06,27,3.70
2010,05,04,06,28,3.70
2010,05,04,06,29,3.70
2010,05,04,06,30,3.70
2010,05,04,06,31,3.80
2010,05,04,06,32,3.80
2010,05,04,06,33,3.80
2010,05,04,06,34,3.80
2010,05,04,06,35,3.70
2010,05,04,06,36,3.70
2010,05,04,06,37,3.70
2010,05,04,06,38,3.70
2010,05,04,06,39,3.70
2010,05,04,06,40,3.70
2010,05,04,06,41,3.70
2010,05,04,06,42,3.70
2010,05,04,06,43,3.70
2010,05,04,06,44,3.70
2010,05,04,06,45,3.70
2010,05,04,06,46,3.60
2010,05,04,06,47,3.60
2010,05,04,06,48,3.60
2010,05,04,06,49,3.60
2010,05,04,06,50,3.60
2010,05,04,06,51,3.60
2010,05,04,06,52,3.60
2010,05,04,06,53,3.60
2010,05,04,06,54,3.60
2010,05,04,06,55,3.60
2010,05,04,06,56,3.60
2010,05,04,06,57,3.50
2010,05,04,06,58,3.60
2010,05,04,06,59,3.60
2010,05,04,07,00,3.60
2010,05,04,07,01,3.60
2010,05,04,07,02,3.60
2010,05,04,07,03,3.60
2010,05,04,07,04,3.60
2010,05,04,07,05,3.60
2010,05,04,07,06,3.60
2010,05,04,07,07,3.60
2010,05,04,07,08,3.60
2010,05,04,07,09,3.60
2010,05,04,07,10,3.70
2010,05,04,07,11,3.70
2010,05,04,07,12,3.70
2010,05,04,07,13,3.70
2010,05,04,07,14,3.70
2010,05,04,07,15,3.80
2010,05,04,07,16,3.80
2010,05,04,07,17,3.80
2010,05,04,07,18,3.90
2010,05,04,07,19,3.90
2010,05,04,07,20,4.00
2010,05,04,07,21,4.00
2010,05,04,07,22,4.00
2010,05,04,07,23,4.00
2010,05,04,07,24,4.10
2010,05,04,07,25,4.10
2010,05,04,07,26,4.10
2010,05,04,07,27,4.10
2010,05,04,07,28,4.20
2010,05,04,07,29,4.20
2010,05,04,07,30,4.20
2010,05,04,07,31,4.30
2010,05,04,07,32,4.30
2010,05,04,07,33,4.30
2010,05,04,07,34,4.30
2010,05,04,07,35,4.40
2010,05,04,07,36,4.40
2010,05,04,07,37,4.50
2010,05,04,07,38,4.50
2010,05,04,07,39,4.60
2010,05,04,07,40,4.60
2010,05,04,07,41,4.70
2010,05,04,07,42,4.70
2010,05,04,07,43,4.70
2010,05,04,07,44,4.80
2010,05,04,07,45,4.80
2010,05,04,07,46,4.80
2010,05,04,07,47,4.90
2010,05,04,07,48,4.90
2010,05,04,07,49,5.00
2010,05,04,07,50,5.00
2010,05,04,07,51,5.10
2010,05,04,07,52,5.20
2010,05,04,07,53,5.40
2010,05,04,07,54,5.50
2010,05,04,07,55,5.70
2010,05,04,07,56,5.90
2010,05,04,07,57,6.10
2010,05,04,07,58,6.30
2010,05,04,07,59,6.50
2010,05,04,08,00,6.60
2010,05,04,08,01,6.70
2010,05,04,08,02,6.80
2010,05,04,08,03,6.90
2010,05,04,08,04,7.00
2010,05,04,08,05,7.00
2010,05,04,08,06,7.00
2010,05,04,08,07,7.00
2010,05,04,08,08,7.10
2010,05,04,08,09,7.10
2010,05,04,08,10,7.10
2010,05,04,08,11,7.10
2010,05,04,08,12,7.10
2010,05,04,08,13,7.10
2010,05,04,08,14,7.10
2010,05,04,08,15,7.10
2010,05,04,08,16,7.10
2010,05,04,08,17,7.10
2010,05,04,08,18,7.10
2010,05,04,08,19,7.10
2010,05,04,08,20,7.10
2010,05,04,08,21,7.10
2010,05,04,08,22,7.20
2010,05,04,08,23,7.20
2010,05,04,08,24,7.20
2010,05,04,08,25,7.20
2010,05,04,08,26,7.20
2010,05,04,08,27,7.20
2010,05,04,08,28,7.20
2010,05,04,08,29,7.20
2010,05,04,08,30,7.20
2010,05,04,08,31,7.30
2010,05,04,08,32,7.30
2010,05,04,08,33,7.40
2010,05,04,08,34,7.40
2010,05,04,08,35,7.50
2010,05,04,08,36,7.60
2010,05,04,08,37,7.60
2010,05,04,08,38,7.70
2010,05,04,08,39,7.70
2010,05,04,08,40,7.70
2010,05,04,08,41,7.70
2010,05,04,08,42,7.70
2010,05,04,08,43,7.70
2010,05,04,08,44,7.80
2010,05,04,08,45,7.80
2010,05,04,08,46,7.80
2010,05,04,08,47,7.80
2010,05,04,08,48,7.80
2010,05,04,08,49,7.90
2010,05,04,08,50,7.90
2010,05,04,08,51,7.90
2010,05,04,08,52,8.00
2010,05,04,08,53,8.00
2010,05,04,08,54,8.10
2010,05,04,08,55,8.10
2010,05,04,08,56,8.20
2010,05,04,08,57,8.20
2010,05,04,08,58,8.20
2010,05,04,08,59,8.20
2010,05,04,09,00,8.30
2010,05,04,09,01,8.30
2010,05,04,09,02,8.40
2010,05,04,09,03,8.50
2010,05,04,09,04,8.60
2010,05,04,09,05,8.60
2010,05,04,09,06,8.70
2010,05,04,09,07,8.70
2010,05,04,09,08,8.80
2010,05,04,09,09,8.90
2010,05,04,09,10,8.90
2010,05,04,09,11,8.90
2010,05,04,09,12,8.80
2010,05,04,09,13,8.80
2010,05,04,09,14,8.70
2010,05,04,09,15,8.70
2010,05,04,09,16,8.80
2010,05,04,09,17,8.70
2010,05,04,09,18,8.60
2010,05,04,09,19,8.50
2010,05,04,09,20,8.50
2010,05,04,09,21,8.40
2010,05,04,09,22,8.50
2010,05,04,09,23,8.60
2010,05,04,09,24,8.60
2010,05,04,09,25,8.70
2010,05,04,09,26,8.80
2010,05,04,09,27,8.90
2010,05,04,09,28,9.00
2010,05,04,09,29,9.00
2010,05,04,09,30,9.10
2010,05,04,09,31,9.20
2010,05,04,09,32,9.30
2010,05,04,09,33,9.40
2010,05,04,09,34,9.50
2010,05,04,09,35,9.60
2010,05,04,09,36,9.50
2010,05,04,09,37,9.40
2010,05,04,09,38,9.30
2010,05,04,09,39,9.20
2010,05,04,09,40,9.20
2010,05,04,09,41,9.30
2010,05,04,09,42,9.30
2010,05,04,09,43,9.30
2010,05,04,09,44,9.30
2010,05,04,09,45,9.20
2010,05,04,09,46,9.30
2010,05,04,09,47,9.40
2010,05,04,09,48,9.40
2010,05,04,09,49,9.40
2010,05,04,09,50,9.50
2010,05,04,09,51,9.60
2010,05,04,09,52,9.80
2010,05,04,09,53,9.80
2010,05,04,09,54,9.70
2010,05,04,09,55,9.70
2010,05,04,09,56,9.70
2010,05,04,09,57,9.70
2010,05,04,09,58,9.60
2010,05,04,09,59,9.50
2010,05,04,10,00,9.50
2010,05,04,10,01,9.40
2010,05,04,10,02,9.40
2010,05,04,10,03,9.40
2010,05,04,10,04,9.50
2010,05,04,10,05,9.50
2010,05,04,10,06,9.50
2010,05,04,10,07,9.50
2010,05,04,10,08,9.50
2010,05,04,10,09,9.50
2010,05,04,10,10,9.40
2010,05,04,10,11,9.40
2010,05,04,10,12,9.30
2010,05,04,10,13,9.20
2010,05,04,10,14,9.10
2010,05,04,10,15,9.00
2010,05,04,10,16,8.90
2010,05,04,10,17,8.80
2010,05,04,10,18,8.60
2010,05,04,10,19,8.50
2010,05,04,10,20,8.50
2010,05,04,10,21,8.40
2010,05,04,10,22,8.40
2010,05,04,10,23,8.50
2010,05,04,10,24,8.60
2010,05,04,10,25,8.60
2010,05,04,10,26,8.70
2010,05,04,10,27,8.90
2010,05,04,10,28,9.00
2010,05,04,10,29,9.00
2010,05,04,10,30,9.10
2010,05,04,10,31,9.20
2010,05,04,10,32,9.30
2010,05,04,10,33,9.30
2010,05,04,10,34,9.40
2010,05,04,10,35,9.50
2010,05,04,10,36,9.60
2010,05,04,10,37,9.70
2010,05,04,10,38,9.70
2010,05,04,10,39,9.80
2010,05,04,10,40,9.80
2010,05,04,10,41,9.80
2010,05,04,10,42,9.90
2010,05,04,10,43,10.00
2010,05,04,10,44,10.00
2010,05,04,10,45,10.00
2010,05,04,10,46,10.10
2010,05,04,10,47,10.10
2010,05,04,10,48,10.20
2010,05,04,10,49,10.20
2010,05,04,10,50,10.20
2010,05,04,10,51,10.20
2010,05,04,10,52,10.20
2010,05,04,10,53,10.30
2010,05,04,10,54,10.30
2010,05,04,10,55,10.30
2010,05,04,10,56,10.30
2010,05,04,10,57,10.30
2010,05,04,10,58,10.40
2010,05,04,10,59,10.40
2010,05,04,11,00,10.40
2010,05,04,11,01,10.40
2010,05,04,11,02,10.20
2010,05,04,11,03,10.10
2010,05,04,11,04,10.00
2010,05,04,11,05,9.90
2010,05,04,11,06,9.90
2010,05,04,11,07,9.90
2010,05,04,11,08,9.90
2010,05,04,11,09,9.90
2010,05,04,11,10,9.90
2010,05,04,11,11,9.90
2010,05,04,11,12,9.80
2010,05,04,11,13,9.70
2010,05,04,11,14,9.70
2010,05,04,11,15,9.60
2010,05,04,11,16,9.60
2010,05,04,11,17,9.60
2010,05,04,11,18,9.60
2010,05,04,11,19,9.50
2010,05,04,11,20,9.50
2010,05,04,11,21,9.50
2010,05,04,11,22,9.40
2010,05,04,11,23,9.40
2010,05,04,11,24,9.30
2010,05,04,11,25,9.30
2010,05,04,11,26,9.20
2010,05,04,11,27,9.20
2010,05,04,11,28,9.30
2010,05,04,11,29,9.30
2010,05,04,11,30,9.40
2010,05,04,11,31,9.40
2010,05,04,11,32,9.40
2010,05,04,11,33,9.50
2010,05,04,11,34,9.60
2010,05,04,11,35,9.60
2010,05,04,11,36,9.70
2010,05,04,11,37,9.80
2010,05,04,11,38,9.70
2010,05,04,11,39,9.80
2010,05,04,11,40,9.80
2010,05,04,11,41,9.80
2010,05,04,11,42,9.80
2010,05,04,11,43,9.80
2010,05,04,11,44,9.80
2010,05,04,11,45,9.80
2010,05,04,11,46,9.80
2010,05,04,11,47,9.90
2010,05,04,11,48,9.90
2010,05,04,11,49,9.90
2010,05,04,11,50,10.00
2010,05,04,11,51,10.10
2010,05,04,11,52,10.10
2010,05,04,11,53,9.90
2010,05,04,11,54,9.90
2010,05,04,11,55,9.90
2010,05,04,11,56,9.90
2010,05,04,11,57,9.80
2010,05,04,11,58,9.80
2010,05,04,11,59,9.80
2010,05,04,12,00,9.80
2010,05,04,12,01,9.90
2010,05,04,12,02,9.80
2010,05,04,12,03,9.80
2010,05,04,12,04,9.80
2010,05,04,12,05,9.80
2010,05,04,12,06,9.70
2010,05,04,12,07,9.70
2010,05,04,12,08,9.70
2010,05,04,12,09,9.70
2010,05,04,12,10,9.70
2010,05,04,12,11,9.80
2010,05,04,12,12,9.80
2010,05,04,12,13,9.80
2010,05,04,12,14,9.80
2010,05,04,12,15,9.80
2010,05,04,12,16,9.90
2010,05,04,12,17,10.00
2010,05,04,12,18,10.10
2010,05,04,12,19,10.00
2010,05,04,12,20,9.90
2010,05,04,12,21,10.00
2010,05,04,12,22,10.00
2010,05,04,12,23,10.00
2010,05,04,12,24,10.00
2010,05,04,12,25,10.00
2010,05,04,12,26,10.10
2010,05,04,12,27,10.30
2010,05,04,12,28,10.30
2010,05,04,12,29,10.40
2010,05,04,12,30,10.50
2010,05,04,12,31,10.60
2010,05,04,12,32,10.70
2010,05,04,12,33,10.70
2010,05,04,12,34,10.80
2010,05,04,12,35,10.70
2010,05,04,12,36,10.70
2010,05,04,12,37,10.80
2010,05,04,12,38,11.00
2010,05,04,12,39,11.10
2010,05,04,12,40,11.10
2010,05,04,12,41,11.10
2010,05,04,12,42,10.90
2010,05,04,12,43,10.90
2010,05,04,12,44,11.00
2010,05,04,12,45,11.10
2010,05,04,12,46,11.20
2010,05,04,12,47,11.30
2010,05,04,12,48,11.30
2010,05,04,12,49,11.20
2010,05,04,12,50,11.30
2010,05,04,12,51,11.30
2010,05,04,12,52,11.40
2010,05,04,12,53,11.40
2010,05,04,12,54,11.40
2010,05,04,12,55,11.20
2010,05,04,12,56,11.10
2010,05,04,12,57,11.00
2010,05,04,12,58,11.10
2010,05,04,12,59,11.20
2010,05,04,13,00,11.20
2010,05,04,13,01,11.40
2010,05,04,13,02,11.50
2010,05,04,13,03,11.50
2010,05,04,13,04,11.50
2010,05,04,13,05,11.60
2010,05,04,13,06,11.70
2010,05,04,13,07,11.90
2010,05,04,13,08,11.90
2010,05,04,13,09,11.90
2010,05,04,13,10,11.90
2010,05,04,13,11,11.90
2010,05,04,13,12,11.80
2010,05,04,13,13,11.80
2010,05,04,13,14,11.80
2010,05,04,13,15,11.90
2010,05,04,13,16,11.90
2010,05,04,13,17,11.80
2010,05,04,13,18,11.80
2010,05,04,13,19,11.80
2010,05,04,13,20,11.80
2010,05,04,13,21,11.80
2010,05,04,13,22,11.60
2010,05,04,13,23,11.70
2010,05,04,13,24,11.80
2010,05,04,13,25,11.80
2010,05,04,13,26,11.90
2010,05,04,13,27,12.00
2010,05,04,13,28,12.10
2010,05,04,13,29,12.10
2010,05,04,13,30,12.10
2010,05,04,13,31,11.90
2010,05,04,13,32,11.90
2010,05,04,13,33,11.90
2010,05,04,13,34,11.80
2010,05,04,13,35,11.80
2010,05,04,13,36,11.80
2010,05,04,13,37,11.80
2010,05,04,13,38,11.80
2010,05,04,13,39,11.70
2010,05,04,13,40,11.70
2010,05,04,13,41,11.60
2010,05,04,13,42,11.50
2010,05,04,13,43,11.60
2010,05,04,13,44,11.60
2010,05,04,13,45,11.50
2010,05,04,13,46,11.60
2010,05,04,13,47,11.60
2010,05,04,13,48,11.70
2010,05,04,13,49,11.70
2010,05,04,13,50,11.60
2010,05,04,13,51,11.60
2010,05,04,13,52,11.60
2010,05,04,13,53,11.50
2010,05,04,13,54,11.60
2010,05,04,13,55,11.60
2010,05,04,13,56,11.60
2010,05,04,13,57,11.60
2010,05,04,13,58,11.60
2010,05,04,13,59,11.50
2010,05,04,14,00,11.40
2010,05,04,14,01,11.40
2010,05,04,14,02,11.40
2010,05,04,14,03,11.50
2010,05,04,14,04,11.60
2010,05,04,14,05,11.60
2010,05,04,14,06,11.70
2010,05,04,14,07,11.80
2010,05,04,14,08,11.80
2010,05,04,14,09,11.70
2010,05,04,14,10,11.80
2010,05,04,14,11,11.80
2010,05,04,14,12,11.60
2010,05,04,14,13,11.60
2010,05,04,14,14,11.50
2010,05,04,14,15,11.30
2010,05,04,14,16,11.20
2010,05,04,14,17,11.20
2010,05,04,14,18,11.20
2010,05,04,14,19,11.20
2010,05,04,14,20,11.20
2010,05,04,14,21,11.40
2010,05,04,14,22,11.50
2010,05,04,14,23,11.60
2010,05,04,14,24,11.70
2010,05,04,14,25,11.80
2010,05,04,14,26,11.80
2010,05,04,14,27,11.80
2010,05,04,14,28,11.80
2010,05,04,14,29,11.70
2010,05,04,14,30,11.60
2010,05,04,14,31,11.60
2010,05,04,14,32,11.50
2010,05,04,14,33,11.30
2010,05,04,14,34,11.30
2010,05,04,14,35,11.20
2010,05,04,14,36,11.20
2010,05,04,14,37,11.10
2010,05,04,14,38,10.80
2010,05,04,14,39,10.60
2010,05,04,14,40,10.40
2010,05,04,14,41,10.30
2010,05,04,14,42,10.20
2010,05,04,14,43,10.10
2010,05,04,14,44,10.10
2010,05,04,14,45,10.10
2010,05,04,14,46,10.10
2010,05,04,14,47,10.00
2010,05,04,14,48,9.90
2010,05,04,14,49,9.90
2010,05,04,14,50,9.90
2010,05,04,14,51,9.80
2010,05,04,14,52,9.80
2010,05,04,14,53,9.80
2010,05,04,14,54,9.70
2010,05,04,14,55,9.70
2010,05,04,14,56,9.70
2010,05,04,14,57,9.70
2010,05,04,14,58,9.80
2010,05,04,14,59,9.80
2010,05,04,15,00,9.80
2010,05,04,15,01,9.80
2010,05,04,15,02,9.80
2010,05,04,15,03,9.80
2010,05,04,15,04,9.80
2010,05,04,15,05,9.80
2010,05,04,15,06,9.70
2010,05,04,15,07,9.70
2010,05,04,15,08,9.70
2010,05,04,15,09,9.60
2010,05,04,15,10,9.60
2010,05,04,15,11,9.50
2010,05,04,15,12,9.50
2010,05,04,15,13,9.50
2010,05,04,15,14,9.40
2010,05,04,15,15,9.40
2010,05,04,15,16,9.40
2010,05,04,15,17,9.40
2010,05,04,15,18,9.50
2010,05,04,15,19,9.50
2010,05,04,15,20,9.50
2010,05,04,15,21,9.50
2010,05,04,15,22,9.50
2010,05,04,15,23,9.50
2010,05,04,15,24,9.60
2010,05,04,15,25,9.60
2010,05,04,15,26,9.70
2010,05,04,15,27,9.70
2010,05,04,15,28,9.70
2010,05,04,15,29,9.70
2010,05,04,15,30,9.60
2010,05,04,15,31,9.50
2010,05,04,15,32,9.40
2010,05,04,15,33,9.40
2010,05,04,15,34,9.30
2010,05,04,15,35,9.30
2010,05,04,15,36,9.30
2010,05,04,15,37,9.30
2010,05,04,15,38,9.30
2010,05,04,15,39,9.30
2010,05,04,15,40,9.20
2010,05,04,15,41,9.20
2010,05,04,15,42,9.10
2010,05,04,15,43,9.10
2010,05,04,15,44,9.10
2010,05,04,15,45,9.00
2010,05,04,15,46,9.00
2010,05,04,15,47,9.00
2010,05,04,15,48,8.90
2010,05,04,15,49,8.70
2010,05,04,15,50,8.60
2010,05,04,15,51,8.40
2010,05,04,15,52,8.20
2010,05,04,15,53,8.00
2010,05,04,15,54,8.00
2010,05,04,15,55,7.90
2010,05,04,15,56,7.80
2010,05,04,15,57,7.80
2010,05,04,15,58,7.80
2010,05,04,15,59,7.70
2010,05,04,16,00,7.60
2010,05,04,16,01,7.60
2010,05,04,16,02,7.60
2010,05,04,16,03,7.50
2010,05,04,16,04,7.60
2010,05,04,16,05,7.50
2010,05,04,16,06,7.50
2010,05,04,16,07,7.50
2010,05,04,16,08,7.40
2010,05,04,16,09,7.40
2010,05,04,16,10,7.40
2010,05,04,16,11,7.40
2010,05,04,16,12,7.30
2010,05,04,16,13,7.30
2010,05,04,16,14,7.30
2010,05,04,16,15,7.30
2010,05,04,16,16,7.30
2010,05,04,16,17,7.30
2010,05,04,16,18,7.40
2010,05,04,16,19,7.40
2010,05,04,16,20,7.40
2010,05,04,16,21,7.40
2010,05,04,16,22,7.40
2010,05,04,16,23,7.40
2010,05,04,16,24,7.40
2010,05,04,16,25,7.40
2010,05,04,16,26,7.40
2010,05,04,16,27,7.40
2010,05,04,16,28,7.40
2010,05,04,16,29,7.40
2010,05,04,16,30,7.40
2010,05,04,16,31,7.40
2010,05,04,16,32,7.40
2010,05,04,16,33,7.40
2010,05,04,16,34,7.40
2010,05,04,16,35,7.40
2010,05,04,16,36,7.40
2010,05,04,16,37,7.40
2010,05,04,16,38,7.40
2010,05,04,16,39,7.40
2010,05,04,16,40,7.50
2010,05,04,16,41,7.50
2010,05,04,16,42,7.60
2010,05,04,16,43,7.60
2010,05,04,16,44,7.60
2010,05,04,16,45,7.70
2010,05,04,16,46,7.70
2010,05,04,16,47,7.70
2010,05,04,16,48,7.70
2010,05,04,16,49,7.70
2010,05,04,16,50,7.80
2010,05,04,16,51,7.80
2010,05,04,16,52,7.80
2010,05,04,16,53,7.80
2010,05,04,16,54,7.90
2010,05,04,16,55,7.90
2010,05,04,16,56,7.90
2010,05,04,16,57,8.00
2010,05,04,16,58,8.00
2010,05,04,16,59,8.00
2010,05,04,17,00,8.00
2010,05,04,17,01,8.00
2010,05,04,17,02,8.00
2010,05,04,17,03,8.10
2010,05,04,17,04,8.10
2010,05,04,17,05,8.10
2010,05,04,17,06,8.10
2010,05,04,17,07,8.20
2010,05,04,17,08,8.20
2010,05,04,17,09,8.20
2010,05,04,17,10,8.20
2010,05,04,17,11,8.30
2010,05,04,17,12,8.30
2010,05,04,17,13,8.30
2010,05,04,17,14,8.30
2010,05,04,17,15,8.30
2010,05,04,17,16,8.40
2010,05,04,17,17,8.40
2010,05,04,17,18,8.50
2010,05,04,17,19,8.50
2010,05,04,17,20,8.50
2010,05,04,17,21,8.60
2010,05,04,17,22,8.60
2010,05,04,17,23,8.60
2010,05,04,17,24,8.70
2010,05,04,17,25,8.70
2010,05,04,17,26,8.80
2010,05,04,17,27,8.80
2010,05,04,17,28,8.90
2010,05,04,17,29,8.90
2010,05,04,17,30,9.00
2010,05,04,17,31,9.00
2010,05,04,17,32,9.10
2010,05,04,17,33,9.20
2010,05,04,17,34,9.30
2010,05,04,17,35,9.30
2010,05,04,17,36,9.30
2010,05,04,17,37,9.40
2010,05,04,17,38,9.40
2010,05,04,17,39,9.40
2010,05,04,17,40,9.40
2010,05,04,17,41,9.50
2010,05,04,17,42,9.60
2010,05,04,17,43,9.60
2010,05,04,17,44,9.70
2010,05,04,17,45,9.80
2010,05,04,17,46,9.90
2010,05,04,17,47,9.90
2010,05,04,17,48,10.00
2010,05,04,17,49,10.10
2010,05,04,17,50,10.10
2010,05,04,17,51,10.20
2010,05,04,17,52,10.30
2010,05,04,17,53,10.40
2010,05,04,17,54,10.40
2010,05,04,17,55,10.50
2010,05,04,17,56,10.60
2010,05,04,17,57,10.60
2010,05,04,17,58,10.70
2010,05,04,17,59,10.70
2010,05,04,18,00,10.70